SCP
0 0 0 0 0 0 0 0 0 0 0 0 0 0 0 0 0 0 0 0 0 0 0 0 0 0 0 0 0 0 0 0 0 0 0 0 0 0 0 0 0 0 0 0 0
0 0 0 0 0 0 0 0 0 0 0 0 0 0 0 0 0 0 0 0 0 0 0 0 0 0 0 0 0 0 0 -0 0 0 0 0 0 0 0 0 0 0 0 0 0
0 0 0 0 0 0 0 0 0 0 0 0 0 0 0 0 0 0 0 0 0 0 0 0 0 0 0 0 0 0 0 0 0 0 0 0 0 0 0 0 0 0 -0 0 0
0 0 0 0 0 0 0 0 0 0 0 0 0 0 0 0 0 0 0 0 0 0 0 0 0 0 0 0 0 0 0 0 0 0 0 0 0 0 0 0 0 0 -0 0 0
0 0 0 0 0 0 0 0 0 0 0 0 0 0 0 0 0 0 0 0 0 0 0 0 0 0 0 0 0 0 0 0 0 0 0 0 0 0 0 0 0 0 0 0 0
0 0 0 0 0 0 0 0 0 0 0 0 0 0 0 0 0 0 0 0 0 0 0 0 0 0 0 0 0 0 0 0 0 0 0 0 0 0 0 0 0 0 -0 0 0
0 0 0 0 0 0 0 0 0 0 0 0 0 0 0 0 0 0 0 0 0 0 0 0 0 0 0 0 0 0 0 0 0 0 0 0 0 0 0 0 0 0 0 -0 0
0 0 0 0 0 0 0 0 0 0 0 0 0 0 0 0 0 0 0 0 0 0 0 0 0 0 0 0 0 0 0 0 0 0 0 0 0 0 0 0 0 0 0 0 0
0 0 0 0 0 0 0 0 0 0 0 0 0 0 0 0 0 0 0 0 0 0 0 0 0 0 0 0 0 0 0 0 0 0 0 0 0 0 0 0 0 0 0 0 0
0 0 0 0 0 0 0 0 0 0 0 0 0 0 0 0 0 0 0 0 0 0 0 0 0 0 0 0 0 0 0 0 0 0 0 0 0 0 0 0 0 0 0 0 0
0 0 0 0 0 0 0 0 0 0 0 0 0 0 0 0 0 0 0 0 0 0 0 0 0 0 0 0 0 0 0 0 0 0 0 0 0 0 0 0 0 0 0 0 0
0 0 0 0 0 0 0 0 0 0 0 0 0 0 0 0 0 0 0 0 0 0 0 0 0 0 0 0 0 0 0 0 0 0 0 0 0 0 -0 0 0 0 0 0 0
0 0 0 0 0 0 0 0 0 0 0 0 0 0 0 0 0 0 0 0 0 0 0 0 0 0 0 0 0 0 0 0 0 0 0 0 -0 0 0 0 0 0 0 0 0
0 0 0 0 0 0 0 0 0 0 0 0 0 0 0 0 0 0 0 0 0 0 0 0 0 0 0 0 0 0 0 0 0 0 0 0 -0 0 0 0 0 0 0 0 0
0 0 0 0 0 0 0 0 0 0 0 0 0 0 0 0 0 0 0 0 0 0 0 0 0 0 0 0 0 0 0 0 0 0 0 0 0 -0 0 0 0 0 0 0 0
0 0 0 0 0 0 0 0 0 0 0 0 0 0 0 0 0 0 0 0 0 0 0 0 0 0 0 0 0 0 0 0 0 0 0 0 0 -0 0 0 0 0 0 0 0
0 0 0 0 0 0 0 0 0 0 0 0 0 0 0 0 0 0 0 0 0 0 0 0 0 0 0 0 0 0 0 0 0 0 0 0 0 0 0 0 0 0 0 0 0
0 0 0 0 0 0 0 0 0 0 0 0 0 0 0 0 0 0 0 0 0 0 0 0 0 0 0 0 0 0 0 0 0 0 0 0 0 0 0 0 0 0 0 0 0
0 0 0 0 0 0 0 0 0 0 0 0 0 0 0 0 0 0 0 0 0 0 0 0 0 0 0 0 0 0 0 0 0 0 0 0 0 0 0 0 0 0 0 0 0
0 0 0 0 0 0 0 0 0 0 0 0 0 0 0 0 0 0 0 0 0 0 0 0 0 0 0 0 0 0 0 0 0 0 0 0 0 0 0 0 0 0 0 0 0
0 0 0 0 0 0 0 0 0 0 0 0 0 0 0 0 0 0 0 0 0 0 0 0 0 0 0 0 0 0 0 0 0 0 0 0 0 0 0 0 0 0 0 0 0
0 0 0 0 0 0 0 0 0 0 0 0 0 0 0 0 0 0 0 0 0 0 0 0 0 0 0 0 0 0 0 0 0 0 0 0 0 0 0 0 0 0 0 0 0
0 0 0 0 0 0 0 0 0 0 0 0 0 0 0 0 0 0 0 0 0 0 0 0 0 0 0 0 0 0 0 0 0 0 0 0 0 0 0 0 0 0 0 -0 0
0 0 0 0 0 0 0 0 0 0 0 0 0 0 0 0 0 0 0 0 0 0 0 0 0 0 0 0 0 0 0 0 0 0 0 0 0 0 0 0 0 -0 -0 0 -0
0 0 0 0 0 0 0 0 0 0 0 0 0 0 0 0 0 0 0 0 0 0 0 0 0 0 0 0 0 0 0 0 0 0 0 0 0 0 0 0 -0 -0 -0 -0 -0
0 0 0 0 0 0 0 0 0 0 0 0 0 0 0 0 0 0 0 0 0 0 0 0 0 0 0 0 0 0 0 0 0 0 0 0 0 0 0 0 0 0 0 0 -0
0 0 0 0 0 0 0 0 0 0 0 0 0 0 0 0 0 0 0 0 0 0 0 0 0 0 0 0 0 0 0 0 0 0 0 0 0 0 0 0 0 0 0 0 0
Wind_Speed_500mb
38 33 33 30 28 27 26 27 24 14 14 13 16 16 19 22 26 29 37 33 43 19 31 36 21 16 11 3 4 2 7 3 9 15 8 23 9 13 8 21 14 14 9 6 45
39 35 34 33 31 26 21 26 22 19 14 14 15 17 16 18 21 30 30 32 35 30 28 35 31 19 8 6 6 7 5 9 9 9 11 23 23 25 12 11 9 11 19 19 48
32 37 34 31 31 29 23 23 26 20 16 14 14 18 15 13 13 16 33 30 34 35 26 28 25 19 7 5 9 9 9 6 4 13 21 20 13 12 22 8 20 23 30 41 49
29 34 36 33 29 28 29 20 27 21 17 15 15 16 14 16 11 9 25 34 37 44 24 28 26 15 7 8 11 7 2 2 2 10 25 21 24 10 21 4 8 12 27 49 50
28 31 34 34 32 28 27 26 24 23 18 15 16 16 16 14 12 7 15 33 36 41 37 30 30 16 9 8 8 7 6 4 2 19 21 21 9 10 17 8 12 20 33 44 44
27 32 35 34 34 31 28 28 24 23 19 14 17 18 20 12 14 14 9 27 35 39 44 37 24 23 8 4 9 11 9 7 6 12 12 12 4 5 15 13 22 29 33 38 41
28 34 35 34 35 31 30 25 26 23 20 16 18 19 24 22 14 16 12 25 32 35 41 36 18 23 8 5 11 22 9 4 2 6 4 12 4 13 13 23 27 35 34 36 42
31 33 40 24 32 32 30 27 25 24 18 14 17 18 15 22 22 11 17 25 30 33 31 30 18 16 6 15 9 9 9 5 4 8 3 9 14 9 22 31 35 38 38 40 46
35 32 36 29 25 29 28 26 22 27 16 13 14 14 11 17 28 19 20 23 26 27 25 26 15 10 10 12 8 12 7 6 5 13 4 5 13 3 16 36 38 43 43 44 49
43 34 34 29 25 22 25 25 27 19 15 14 13 10 19 12 22 28 24 27 23 27 23 17 9 7 6 7 15 11 6 4 6 6 4 5 19 11 11 37 47 45 44 49 56
51 42 35 26 25 21 24 34 17 10 31 17 12 5 3 13 22 28 29 33 27 22 9 7 7 20 21 10 10 12 8 7 6 2 4 12 15 20 21 32 45 50 51 58 63
51 45 36 27 27 25 41 40 33 4 12 43 8 27 5 14 12 32 37 18 17 10 11 8 23 7 16 10 12 11 9 6 3 4 7 9 21 21 18 33 60 64 68 70 69
55 47 37 29 30 36 56 48 22 13 6 8 41 11 22 22 9 41 42 14 9 13 11 15 6 23 12 9 12 6 11 7 3 5 5 10 17 13 10 36 58 75 82 79 83
57 49 41 36 36 39 62 47 19 13 4 10 15 12 26 16 8 36 47 14 4 13 15 8 4 16 12 14 12 10 10 9 11 7 6 4 10 13 12 18 18 57 77 92 90
59 52 47 49 36 45 52 46 22 13 4 8 15 20 22 19 28 21 45 8 13 12 14 13 12 14 11 14 12 11 11 13 7 7 2 5 3 16 6 17 20 29 60 63 72
62 57 52 53 49 44 48 52 26 6 18 9 15 18 14 8 5 16 22 8 11 9 10 4 2 3 12 6 12 17 14 15 10 6 4 10 12 12 9 11 10 2 12 22 43
67 64 65 62 64 41 54 40 6 13 5 11 13 15 18 13 7 7 16 13 13 12 7 6 4 5 4 14 7 7 14 5 5 4 11 4 6 20 14 14 11 29 46 35 25
68 67 68 66 57 53 58 13 12 10 15 6 8 22 11 11 4 9 14 13 10 10 9 13 4 13 6 9 18 13 15 11 15 9 7 6 11 12 6 6 24 42 44 25 21
67 72 77 75 64 61 48 21 15 14 16 17 10 15 10 10 12 10 25 18 17 18 14 11 6 4 5 1 6 11 9 12 13 5 4 6 14 19 9 11 24 36 36 24 19
74 77 79 82 68 55 21 28 7 9 12 17 16 11 16 18 12 15 18 11 12 18 8 14 9 3 2 3 7 7 14 7 5 6 5 5 10 11 6 12 18 29 44 43 28
76 44 65 89 68 37 19 30 11 16 16 13 13 12 12 16 15 14 27 7 14 17 11 10 8 2 4 10 15 6 5 7 9 8 10 5 11 11 7 5 9 16 37 38 40
72 16 65 100 25 19 31 12 5 16 26 12 9 8 16 17 12 12 23 10 38 36 17 10 11 8 6 4 2 1 12 12 9 9 3 4 11 4 10 2 9 26 36 35 38
50 27 89 107 26 22 15 18 3 9 13 13 13 6 7 15 8 10 12 14 24 22 24 16 4 7 9 9 4 8 9 8 9 5 12 12 10 3 5 10 7 25 29 30 40
31 9 34 73 62 31 35 22 23 9 3 5 8 9 10 10 5 16 16 5 14 25 12 15 6 10 14 9 12 12 12 10 11 6 10 12 6 7 5 11 31 34 41 52 61
35 12 15 28 38 37 35 34 36 17 19 21 4 12 16 9 7 8 8 7 7 15 13 12 10 4 9 8 6 7 14 22 19 20 14 8 16 16 21 21 28 27 48 47 69
28 11 10 11 69 45 45 32 51 22 24 18 9 12 6 17 16 16 15 6 10 6 8 2 6 7 5 3 11 2 6 18 16 5 12 7 18 17 48 53 49 73 70 63 63
40 27 13 19 40 37 43 47 57 36 19 42 32 11 8 8 20 35 17 19 18 17 9 12 11 7 7 3 8 9 21 14 10 10 13 20 25 7 9 20 39 53 54 64 68
Wind_Direction_500mb
259 253 249 260 272 284 295 302 303 298 280 277 269 245 240 241 237 224 223 224 220 226 214 213 220 225 237 203 153 112 58 188 202 164 204 168 137 163 161 154 179 177 198 197 186
249 252 251 251 260 268 272 289 296 305 282 271 267 255 240 242 240 230 220 216 212 212 208 205 216 218 210 190 159 116 126 223 187 196 180 180 154 155 158 164 204 177 188 183 182
253 248 251 251 253 261 262 272 289 299 296 261 258 259 235 228 246 240 219 211 205 200 200 195 206 208 201 182 182 167 187 199 237 215 173 156 146 169 154 218 219 206 180 171 182
255 253 248 248 248 253 256 240 272 286 303 268 245 251 226 196 201 214 208 205 199 198 191 188 188 178 174 198 185 155 198 227 245 167 157 159 154 183 192 204 206 224 190 174 183
256 256 247 244 244 246 254 245 253 272 290 273 238 238 223 211 243 222 223 208 197 198 196 189 187 172 181 206 152 154 161 84 57 154 150 146 183 209 219 233 172 179 179 182 189
251 251 245 241 242 241 246 246 236 255 276 273 238 223 223 234 223 222 236 200 199 194 192 193 198 189 176 211 169 157 118 119 127 136 142 140 189 192 218 199 175 180 185 190 200
260 252 264 241 240 242 238 247 239 247 263 270 237 216 233 227 209 215 213 188 194 189 191 191 185 185 168 147 135 130 88 44 136 155 124 148 259 228 215 195 185 190 197 201 208
260 253 257 269 246 242 239 236 231 245 250 248 227 216 243 229 210 190 189 185 186 187 190 183 179 179 168 129 62 73 62 139 222 165 186 152 256 266 221 201 199 201 206 213 217
246 257 256 259 251 246 236 225 219 239 221 214 215 217 242 226 214 197 184 183 180 178 179 181 166 162 130 107 49 15 181 197 307 193 133 164 257 238 224 209 214 211 213 221 225
242 246 252 253 248 243 229 202 214 226 205 184 213 227 236 208 194 191 174 169 161 161 144 164 169 104 58 139 197 177 158 216 219 243 133 216 262 276 248 213 224 224 222 227 231
239 241 242 242 240 221 202 184 180 216 203 205 194 219 178 176 179 181 167 163 157 158 151 150 127 197 188 151 151 143 142 165 222 87 185 231 264 272 249 221 237 236 234 233 237
234 235 238 231 230 219 203 187 194 204 231 221 225 206 207 181 163 176 168 166 150 151 128 71 226 156 130 133 115 131 145 204 323 48 147 345 279 262 210 225 230 234 236 238 239
228 229 231 219 217 218 194 195 205 209 260 230 217 225 215 203 208 179 179 166 128 133 172 162 248 152 137 142 145 161 152 172 132 53 49 339 295 270 277 240 241 242 245 246 242
224 223 221 213 221 208 190 194 210 193 5 209 199 221 213 198 230 180 181 161 164 157 142 190 120 151 148 187 139 196 202 136 121 90 233 22 274 300 270 271 238 246 243 244 244
221 219 212 207 207 212 190 187 211 168 227 178 157 162 182 178 139 176 177 150 164 153 123 223 161 150 155 193 139 213 118 137 116 104 71 303 33 271 302 282 267 251 248 249 247
219 213 210 208 209 208 196 185 168 145 232 185 146 165 147 186 144 136 161 148 131 93 44 123 69 138 179 105 138 151 83 49 55 81 325 226 159 284 242 218 304 1 325 300 252
216 210 209 210 204 197 194 163 137 204 274 203 183 164 155 149 144 167 162 166 155 114 164 36 311 298 156 88 60 92 99 31 5 4 225 336 111 249 263 257 251 285 296 300 296
215 211 208 213 208 204 187 165 177 202 196 129 132 125 172 149 121 173 132 176 227 100 118 146 252 177 178 183 170 180 157 152 191 192 238 87 233 248 217 291 282 292 285 302 308
213 211 210 207 208 198 182 209 208 196 152 134 73 140 176 201 124 162 188 198 188 185 139 133 221 349 43 73 145 193 182 152 107 20 50 219 284 297 28 34 31 15 25 350 312
210 200 204 203 201 199 207 221 216 189 134 152 159 160 174 183 136 165 166 201 201 179 186 197 106 357 340 143 43 135 160 81 7 130 216 273 287 242 333 349 13 13 25 27 17
208 201 199 200 190 177 218 221 202 214 163 147 158 148 174 173 156 179 190 260 183 179 145 136 98 270 132 213 168 129 174 68 118 154 164 164 254 209 180 83 48 13 23 19 17
205 206 182 190 167 197 216 192 207 189 208 227 134 120 169 159 148 180 199 226 186 156 165 185 116 143 175 272 289 334 177 155 140 205 205 130 271 177 186 11 106 17 21 32 26
208 173 180 180 188 204 179 194 294 172 173 177 186 161 175 157 133 202 185 215 187 172 161 183 149 86 14 352 5 208 192 138 114 92 191 149 248 258 295 168 349 4 12 16 3
190 186 167 184 200 190 181 189 204 225 298 165 180 135 122 144 25 180 175 165 186 187 171 112 79 154 181 197 138 184 182 167 140 150 166 221 232 296 246 274 305 322 326 326 330
197 210 194 177 192 190 183 168 188 199 205 204 276 210 156 116 84 153 139 129 54 184 101 128 164 122 38 94 107 162 175 170 194 201 179 219 204 261 288 306 313 315 316 322 322
202 180 185 199 182 179 185 190 187 165 171 209 173 180 188 154 183 180 132 156 173 68 114 58 148 133 48 50 58 5 206 201 229 157 288 260 268 222 265 286 301 305 310 316 322
183 162 158 175 177 178 191 187 198 172 197 203 192 156 187 215 168 163 133 127 152 145 138 121 127 105 208 2 124 318 232 192 184 197 196 219 244 242 289 289 291 298 307 313 318
Wind_Speed_850mb
38 33 33 30 28 27 26 27 24 14 14 13 16 16 19 22 26 29 37 33 43 19 31 36 21 16 11 3 4 2 7 3 9 15 8 23 9 13 8 21 14 14 9 6 45
39 35 34 33 31 26 21 26 22 19 14 14 15 17 16 18 21 30 30 32 35 30 28 35 31 19 8 6 6 7 5 9 9 9 11 23 23 25 12 11 9 11 19 19 48
32 37 34 31 31 29 23 23 26 20 16 14 14 18 15 13 13 16 33 30 34 35 26 28 25 19 7 5 9 9 9 6 4 13 21 20 13 12 22 8 20 23 30 41 49
29 34 36 33 29 28 29 20 27 21 17 15 15 16 14 16 11 9 25 34 37 44 24 28 26 15 7 8 11 7 2 2 2 10 25 21 24 10 21 4 8 12 27 49 50
28 31 34 34 32 28 27 26 24 23 18 15 16 16 16 14 12 7 15 33 36 41 37 30 30 16 9 8 8 7 6 4 2 19 21 21 9 10 17 8 12 20 33 44 44
27 32 35 34 34 31 28 28 24 23 19 14 17 18 20 12 14 14 9 27 35 39 44 37 24 23 8 4 9 11 9 7 6 12 12 12 4 5 15 13 22 29 33 38 41
28 34 35 34 35 31 30 25 26 23 20 16 18 19 24 22 14 16 12 25 32 35 41 36 18 23 8 5 11 22 9 4 2 6 4 12 4 13 13 23 27 35 34 36 42
31 33 40 24 32 32 30 27 25 24 18 14 17 18 15 22 22 11 17 25 30 33 31 30 18 16 6 15 9 9 9 5 4 8 3 9 14 9 22 31 35 38 38 40 46
35 32 36 29 25 29 28 26 22 27 16 13 14 14 11 17 28 19 20 23 26 27 25 26 15 10 10 12 8 12 7 6 5 13 4 5 13 3 16 36 38 43 43 44 49
43 34 34 29 25 22 25 25 27 19 15 14 13 10 19 12 22 28 24 27 23 27 23 17 9 7 6 7 15 11 6 4 6 6 4 5 19 11 11 37 47 45 44 49 56
51 42 35 26 25 21 24 34 17 10 31 17 12 5 3 13 22 28 29 33 27 22 9 7 7 20 21 10 10 12 8 7 6 2 4 12 15 20 21 32 45 50 51 58 63
51 45 36 27 27 25 41 40 33 4 12 43 8 27 5 14 12 32 37 18 17 10 11 8 23 7 16 10 12 11 9 6 3 4 7 9 21 21 18 33 60 64 68 70 69
55 47 37 29 30 36 56 48 22 13 6 8 41 11 22 22 9 41 42 14 9 13 11 15 6 23 12 9 12 6 11 7 3 5 5 10 17 13 10 36 58 75 82 79 83
57 49 41 36 36 39 62 47 19 13 4 10 15 12 26 16 8 36 47 14 4 13 15 8 4 16 12 14 12 10 10 9 11 7 6 4 10 13 12 18 18 57 77 92 90
59 52 47 49 36 45 52 46 22 13 4 8 15 20 22 19 28 21 45 8 13 12 14 13 12 14 11 14 12 11 11 13 7 7 2 5 3 16 6 17 20 29 60 63 72
62 57 52 53 49 44 48 52 26 6 18 9 15 18 14 8 5 16 22 8 11 9 10 4 2 3 12 6 12 17 14 15 10 6 4 10 12 12 9 11 10 2 12 22 43
67 64 65 62 64 41 54 40 6 13 5 11 13 15 18 13 7 7 16 13 13 12 7 6 4 5 4 14 7 7 14 5 5 4 11 4 6 20 14 14 11 29 46 35 25
68 67 68 66 57 53 58 13 12 10 15 6 8 22 11 11 4 9 14 13 10 10 9 13 4 13 6 9 18 13 15 11 15 9 7 6 11 12 6 6 24 42 44 25 21
67 72 77 75 64 61 48 21 15 14 16 17 10 15 10 10 12 10 25 18 17 18 14 11 6 4 5 1 6 11 9 12 13 5 4 6 14 19 9 11 24 36 36 24 19
74 77 79 82 68 55 21 28 7 9 12 17 16 11 16 18 12 15 18 11 12 18 8 14 9 3 2 3 7 7 14 7 5 6 5 5 10 11 6 12 18 29 44 43 28
76 44 65 89 68 37 19 30 11 16 16 13 13 12 12 16 15 14 27 7 14 17 11 10 8 2 4 10 15 6 5 7 9 8 10 5 11 11 7 5 9 16 37 38 40
72 16 65 100 25 19 31 12 5 16 26 12 9 8 16 17 12 12 23 10 38 36 17 10 11 8 6 4 2 1 12 12 9 9 3 4 11 4 10 2 9 26 36 35 38
50 27 89 107 26 22 15 18 3 9 13 13 13 6 7 15 8 10 12 14 24 22 24 16 4 7 9 9 4 8 9 8 9 5 12 12 10 3 5 10 7 25 29 30 40
31 9 34 73 62 31 35 22 23 9 3 5 8 9 10 10 5 16 16 5 14 25 12 15 6 10 14 9 12 12 12 10 11 6 10 12 6 7 5 11 31 34 41 52 61
35 12 15 28 38 37 35 34 36 17 19 21 4 12 16 9 7 8 8 7 7 15 13 12 10 4 9 8 6 7 14 22 19 20 14 8 16 16 21 21 28 27 48 47 69
28 11 10 11 69 45 45 32 51 22 24 18 9 12 6 17 16 16 15 6 10 6 8 2 6 7 5 3 11 2 6 18 16 5 12 7 18 17 48 53 49 73 70 63 63
40 27 13 19 40 37 43 47 57 36 19 42 32 11 8 8 20 35 17 19 18 17 9 12 11 7 7 3 8 9 21 14 10 10 13 20 25 7 9 20 39 53 54 64 68
Wind_Direction_850mb
259 253 249 260 272 284 295 302 303 298 280 277 269 245 240 241 237 224 223 224 220 226 214 213 220 225 237 203 153 112 58 188 202 164 204 168 137 163 161 154 179 177 198 197 186
249 252 251 251 260 268 272 289 296 305 282 271 267 255 240 242 240 230 220 216 212 212 208 205 216 218 210 190 159 116 126 223 187 196 180 180 154 155 158 164 204 177 188 183 182
253 248 251 251 253 261 262 272 289 299 296 261 258 259 235 228 246 240 219 211 205 200 200 195 206 208 201 182 182 167 187 199 237 215 173 156 146 169 154 218 219 206 180 171 182
255 253 248 248 248 253 256 240 272 286 303 268 245 251 226 196 201 214 208 205 199 198 191 188 188 178 174 198 185 155 198 227 245 167 157 159 154 183 192 204 206 224 190 174 183
256 256 247 244 244 246 254 245 253 272 290 273 238 238 223 211 243 222 223 208 197 198 196 189 187 172 181 206 152 154 161 84 57 154 150 146 183 209 219 233 172 179 179 182 189
251 251 245 241 242 241 246 246 236 255 276 273 238 223 223 234 223 222 236 200 199 194 192 193 198 189 176 211 169 157 118 119 127 136 142 140 189 192 218 199 175 180 185 190 200
260 252 264 241 240 242 238 247 239 247 263 270 237 216 233 227 209 215 213 188 194 189 191 191 185 185 168 147 135 130 88 44 136 155 124 148 259 228 215 195 185 190 197 201 208
260 253 257 269 246 242 239 236 231 245 250 248 227 216 243 229 210 190 189 185 186 187 190 183 179 179 168 129 62 73 62 139 222 165 186 152 256 266 221 201 199 201 206 213 217
246 257 256 259 251 246 236 225 219 239 221 214 215 217 242 226 214 197 184 183 180 178 179 181 166 162 130 107 49 15 181 197 307 193 133 164 257 238 224 209 214 211 213 221 225
242 246 252 253 248 243 229 202 214 226 205 184 213 227 236 208 194 191 174 169 161 161 144 164 169 104 58 139 197 177 158 216 219 243 133 216 262 276 248 213 224 224 222 227 231
239 241 242 242 240 221 202 184 180 216 203 205 194 219 178 176 179 181 167 163 157 158 151 150 127 197 188 151 151 143 142 165 222 87 185 231 264 272 249 221 237 236 234 233 237
234 235 238 231 230 219 203 187 194 204 231 221 225 206 207 181 163 176 168 166 150 151 128 71 226 156 130 133 115 131 145 204 323 48 147 345 279 262 210 225 230 234 236 238 239
228 229 231 219 217 218 194 195 205 209 260 230 217 225 215 203 208 179 179 166 128 133 172 162 248 152 137 142 145 161 152 172 132 53 49 339 295 270 277 240 241 242 245 246 242
224 223 221 213 221 208 190 194 210 193 5 209 199 221 213 198 230 180 181 161 164 157 142 190 120 151 148 187 139 196 202 136 121 90 233 22 274 300 270 271 238 246 243 244 244
221 219 212 207 207 212 190 187 211 168 227 178 157 162 182 178 139 176 177 150 164 153 123 223 161 150 155 193 139 213 118 137 116 104 71 303 33 271 302 282 267 251 248 249 247
219 213 210 208 209 208 196 185 168 145 232 185 146 165 147 186 144 136 161 148 131 93 44 123 69 138 179 105 138 151 83 49 55 81 325 226 159 284 242 218 304 1 325 300 252
216 210 209 210 204 197 194 163 137 204 274 203 183 164 155 149 144 167 162 166 155 114 164 36 311 298 156 88 60 92 99 31 5 4 225 336 111 249 263 257 251 285 296 300 296
215 211 208 213 208 204 187 165 177 202 196 129 132 125 172 149 121 173 132 176 227 100 118 146 252 177 178 183 170 180 157 152 191 192 238 87 233 248 217 291 282 292 285 302 308
213 211 210 207 208 198 182 209 208 196 152 134 73 140 176 201 124 162 188 198 188 185 139 133 221 349 43 73 145 193 182 152 107 20 50 219 284 297 28 34 31 15 25 350 312
210 200 204 203 201 199 207 221 216 189 134 152 159 160 174 183 136 165 166 201 201 179 186 197 106 357 340 143 43 135 160 81 7 130 216 273 287 242 333 349 13 13 25 27 17
208 201 199 200 190 177 218 221 202 214 163 147 158 148 174 173 156 179 190 260 183 179 145 136 98 270 132 213 168 129 174 68 118 154 164 164 254 209 180 83 48 13 23 19 17
205 206 182 190 167 197 216 192 207 189 208 227 134 120 169 159 148 180 199 226 186 156 165 185 116 143 175 272 289 334 177 155 140 205 205 130 271 177 186 11 106 17 21 32 26
208 173 180 180 188 204 179 194 294 172 173 177 186 161 175 157 133 202 185 215 187 172 161 183 149 86 14 352 5 208 192 138 114 92 191 149 248 258 295 168 349 4 12 16 3
190 186 167 184 200 190 181 189 204 225 298 165 180 135 122 144 25 180 175 165 186 187 171 112 79 154 181 197 138 184 182 167 140 150 166 221 232 296 246 274 305 322 326 326 330
197 210 194 177 192 190 183 168 188 199 205 204 276 210 156 116 84 153 139 129 54 184 101 128 164 122 38 94 107 162 175 170 194 201 179 219 204 261 288 306 313 315 316 322 322
202 180 185 199 182 179 185 190 187 165 171 209 173 180 188 154 183 180 132 156 173 68 114 58 148 133 48 50 58 5 206 201 229 157 288 260 268 222 265 286 301 305 310 316 322
183 162 158 175 177 178 191 187 198 172 197 203 192 156 187 215 168 163 133 127 152 145 138 121 127 105 208 2 124 318 232 192 184 197 196 219 244 242 289 289 291 298 307 313 318